Regional Weather Roundup
Issued by NWS

Home | Current Version | Previous Version | Graphics & Text | Print | Product List | Glossary Off
Versions: 1 2 3 4 5 6 7 8 9 10 11 12 13 14 15 16 17 18 19 20 21 22 23 24 25 26 27 28 29 30 31 32 33 34 35 36 37 38 39 40 41 42 43 44 45 46 47 48 49 50

000
ASUS43 KMKX 130910
RWRWI

WISCONSIN REGIONAL WEATHER ROUNDUP
NATIONAL WEATHER SERVICE MILWAUKEE/SULLIVAN WI
300 AM CST WED DEC 13 2017

NOTE: "FAIR" INDICATES FEW OR NO CLOUDS BELOW 12,000 FEET WITH NO
SIGNIFICANT WEATHER AND/OR OBSTRUCTIONS TO VISIBILITY.

WIZ001-002-006>008-014>016-023>028-131000-
NORTHWEST WISCONSIN

CITY           SKY/WX    TMP DP  RH WIND       PRES   REMARKS
SUPERIOR ARPT  CLOUDY    18  13  84 E10       29.52F WCI   6
ASHLAND        FLURRIES  15  10  80 E5        29.56F WCI   8
HAYWARD        CLOUDY    17  11  77 SE6       29.49F WCI   9
SIREN          LGT SNOW  19  15  84 SE8G16    29.46F WCI   9
CUMBERLAND     LGT SNOW  18  12  79 SE9       29.49F WCI   6
RICE LAKE      CLOUDY    19  14  81 E10       29.51F WCI   7
CHETEK         CLOUDY    19  13  80 SE9       29.50F WCI   7
LADYSMITH      CLOUDY    18  14  83 SE10      29.55F WCI   6
EAU CLAIRE     CLOUDY    20  14  77 E9        29.52F WCI   9
MENOMONIE      CLOUDY    23  17  77 E8        29.51F WCI  14
NEW RICHMOND   CLOUDY    22  17  81 SE8       29.45F WCI  13
OSCEOLA        CLOUDY    23  19  83 E10       29.47F WCI  12
$$

WIZ003>005-009-010-017-018-131000-
NORTH CENTRAL WISCONSIN

CITY           SKY/WX    TMP DP  RH WIND       PRES   REMARKS
MANITOWISH WTR FLURRIES  11   8  89 SE7       29.54F WCI   0
ARBOR VITAE    FLURRIES  14  10  85 SE9       29.55F WCI   1
WOODRUFF       FLURRIES  14  10  85 SE9       29.55F WCI   1
RHINELANDER    CLOUDY    12   8  84 SE9       29.57F WCI   0
EAGLE RIVER    FLURRIES  11   6  79 SE7       29.57F WCI   0
LAND O LAKES   LGT SNOW  11   7  83 SE8       29.59F WCI  -1
PHILLIPS       CLOUDY    13  11  90 SE8       29.53F WCI   2
TOMAHAWK       LGT SNOW  12   8  87 SE3       29.58F
MEDFORD        CLOUDY    14  11  89 SE8       29.55F WCI   2
MERRILL        FLURRIES  13  10  86 SE9       29.59F WCI   1
$$

WIZ029-030-035-036-043>047-131000-
CENTRAL WISCONSIN

CITY           SKY/WX    TMP DP  RH WIND       PRES   REMARKS
WAUSAU         CLOUDY    13  10  88 SE10      29.59F WCI   0
MOSINEE        CLOUDY    14  12  92 SE10      29.61F WCI   1
MARSHFIELD     CLOUDY    16  12  84 SE14      29.56F WCI   2
STEVENS POINT  CLOUDY    14  11  87 SE10      29.63F WCI   1
WAUPACA        CLOUDY    18  12  76 E6        29.68F WCI  10
WAUTOMA        CLOUDY    18  12  77 SE7       29.67F WCI   9
WISC RAPIDS    CLOUDY    17  11  77 SE9       29.63F WCI   6
CAMP DOUGLAS   CLOUDY    20  12  73 SE8       29.59F WCI  10
$$

WIZ011>013-019>022-031-037>040-048>050-131000-
NORTHEAST WISCONSIN

CITY           SKY/WX    TMP DP  RH WIND       PRES   REMARKS
ANTIGO         CLOUDY    10   8  89 SE10      29.61F WCI  -3
SHAWANO        FLURRIES  16  10  78 SE6       29.70F WCI   8
OCONTO         CLOUDY    15   7  71 CALM      29.73F
STURGEON BAY   CLOUDY    15   8  73 SE5       29.75F WCI   8
GREEN BAY      LGT SNOW  16   8  71 SE7       29.73F WCI   6
MANITOWOC      FLURRIES  16   8  71 S7        29.76F WCI   6
APPLETON       CLOUDY    18  10  73 SE13      29.67F WCI   4
CLINTONVILLE   NOT AVBL
OSHKOSH        CLOUDY    17  10  74 SE10      29.69F WCI   5
$$

WIZ032>034-041-042-053>061-131000-
SOUTHWEST WISCONSIN

CITY           SKY/WX    TMP DP  RH WIND       PRES   REMARKS
LA CROSSE      MOCLDY    28  19  69 S14       29.55F WCI  17
SPARTA         CLOUDY    24  17  74 SE5       29.58F WCI  18
VIROQUA        PTCLDY    22  17  82 SE8       29.57F WCI  12
BOSCOBEL       PTCLDY    27  15  61 S5        29.63F WCI  22
PRAIRIE DU CHI PTCLDY    29  18  63 SE8       29.61F WCI  21
PLATTEVILLE    CLOUDY    23  15  71 S10       29.65F WCI  12
$$

WIZ056-057-062-063-064-067-068-131000-
SOUTH CENTRAL WISCONSIN

CITY           SKY/WX    TMP DP  RH WIND       PRES   REMARKS
REEDSBURG      CLOUDY    22  12  66 SE3       29.62F
BARABOO/DELLS  CLOUDY    21  11  65 S9G17     29.63F WCI  11
LONE ROCK      CLOUDY    20  14  77 E7        29.66F WCI  11
MINERAL POINT  CLOUDY    25  16  68 SE9       29.63F WCI  15
MADISON        CLOUDY    23  11  60 S12       29.68F WCI  12
MIDDLETON      CLOUDY    25  12  59 S8        29.67F WCI  16
WATERTOWN      CLOUDY    20  12  68 SE8       29.71F WCI  11
MONROE         CLOUDY    23  12  63 S13       29.67F WCI  11
JANESVILLE     CLOUDY    28  10  47 S7        29.72F WCI  21
$$

WIZ051-052-058>065-066-070>072-131000-
SOUTHEAST WISCONSIN

CITY           SKY/WX    TMP DP  RH WIND       PRES   REMARKS
MILWAUKEE      CLOUDY    21   9  59 S7        29.78F WCI  12
WAUKESHA       CLOUDY    19   9  63 SE8       29.75F WCI   9
MILWAUKEE/TIMM CLOUDY    21   5  49 S7        29.77F WCI  13
RACINE         CLOUDY    21   8  57 S7        29.80F WCI  12
BURLINGTON       N/A    N/A N/A N/A MISG        N/A
KENOSHA        CLOUDY    22  10  60 S8        29.78F WCI  12
FOND DU LAC    CLOUDY    19   8  62 SE12      29.70F WCI   7
SHEBOYGAN      LGT SNOW  16  11  80 SE5       29.75F WCI   9
WEST BEND      CLOUDY    18   9  68 SE6       29.73F WCI   9
JUNEAU         CLOUDY    19  10  68 SE10      29.71F WCI   7
$$

LSZ147-162-131000-
LAKE SUPERIOR

STATION/POSITION TIME  TEMP    WIND        PRES    WAVE
                       AIR SEA DIR/SP/G            HT/PER
                 (UTC) (F)     (DEG/KT/KT) (MB)    (FT/S)
DEVILS ISLAND    0900   21     120/ 16/ 19 1002.4F
SAXON HARBOR     0840   17                 1001.7F
$$

LMZ867-665-643>646-131000-
LAKE MICHIGAN

STATION/POSITION TIME  TEMP    WIND        PRES    WAVE
                       AIR SEA DIR/SP/G            HT/PER
                 (UTC) (F)     (DEG/KT/KT) (MB)    (FT/S)
NORTHPORT PIER   0841   17      CALM  /  1 1008.1F
KEWAUNEE LAKESHO 0848   15     220/  3/  5 1007.4F
SHEBOYGAN LAKESH 0900   17     200/  8/  9 1009.0F
PORT WASHINGTON  0900   21     200/  5/  9 1008.8
MILWAUKEE LAKESH 0800   21     180/  6/  8   N/A
KENOSHA   LAKESH 0900   22     200/  8/ 12 1009.1
$$

TC  - TEMPERATURE IN CELSIUS
VSB - VISIBILITY IN STATUTE MILES
WCI - WIND CHILL INDEX
HX  - HEAT INDEX




USA.gov is the U.S. government's official web portal to all federal, state and local government web resources and services.